Tracking 19192 objects as of 19-Jun-2018
HD Live streaming from Space Station
objects crossing your sky now

CZ-4 DEB

Track CZ-4 DEB now!
10-day predictions


NORAD ID: 26650
Int'l Code: 1999-057LG
Perigee: 628.7 km
Apogee: 646.6 km
Inclination: 98.5 °
Period: 97.3 minutes
Semi major axis: 7008 km
RCS: 0.0056 m2 (small)
Launch date: October 14, 1999
Source: People's Republic of China (PRC)
Launch site: Taiyaun Space Center, China (TSC)

Note: This is SATELLITE DEBRIS
aabbcc
Your satellite tracking list
Your tracking list is empty




NASA's NSSDC Master Catalog

Two Line Element Set (TLE):
1 26650U 99057LG  18169.84544951  .00000391  00000-0  60001-4 0  9998
2 26650  98.5305 281.8516 0012787 104.5382  22.6492 14.79616551965044
Source of the keplerian elements: AFSPC